Back to catalog

SATCOM 3 DEB

AliveHEO
NORAD 32984·DEBRIS·🇺🇸 United States

Launched Dec 7, 1979 from Cape Canaveral Space Force Station

Loading…

Next Passes (next 24 hours)

TLE

FreshSource: Space-Track

Epoch: Sep 14, 2026, 12:24 UTC

1 32984U 79101K   26257.51720368 -.00000154  00000-0  00000-0 0  9999
2 32984   9.7674  66.3611 4850501 130.0865 195.1066  1.82640562 91305

Track SATCOM 3 DEB in real time with AllMySat

Download on the App Store